Wind_Speed
67 67 66 64 61 58 59 47 44 45 55 49 48 43 41 34 37 35 32 36 34 27 21 23 23 23 21 16 15 17 24 23 26 33 34 35 26 28 27 28 23 18 19 15
72 70 67 62 57 58 54 48 48 54 54 43 40 39 39 36 32 31 18 22 43 29 19 20 21 22 19 15 12 19 20 31 28 31 34 32 33 30 29 29 27 20 18 19
76 73 68 65 64 64 62 53 46 43 43 41 44 38 34 18 45 39 29 24 25 22 21 19 20 20 17 13 12 13 21 26 33 32 32 31 27 29 31 32 28 25 23 23
79 78 72 69 68 60 58 54 43 41 39 42 32 38 27 14 10 34 37 26 22 22 22 24 21 18 17 12 10 10 10 19 29 38 36 30 31 28 34 34 34 34 29 29
74 73 67 63 55 52 44 45 43 42 40 38 31 31 25 22 32 41 33 26 24 26 21 25 22 19 19 12 9 7 6 9 17 31 33 39 35 30 27 32 31 33 35 32
70 64 54 53 50 45 44 41 43 39 36 33 34 33 38 25 26 32 31 30 25 26 23 25 25 20 22 16 9 8 6 9 8 17 25 33 38 40 41 38 36 34 34 37
58 48 51 48 44 42 41 39 39 35 34 35 36 34 38 29 34 36 33 34 28 25 27 25 26 23 23 19 12 10 9 9 10 12 17 25 30 29 37 36 37 36 32 31
50 45 45 46 44 43 38 38 35 34 32 30 26 22 33 31 35 36 38 38 37 32 28 26 27 26 22 21 16 12 11 15 10 5 9 18 23 28 29 37 38 37 35 38
46 46 48 42 42 39 38 35 37 34 32 36 31 40 39 38 34 37 34 33 34 36 29 29 32 31 22 21 18 18 13 5 8 13 14 7 15 29 30 32 25 36 31 30
47 42 44 40 41 38 37 36 36 36 36 36 38 42 38 34 37 41 44 42 42 37 30 32 32 28 25 21 18 21 20 24 15 2 14 10 2 10 21 33 28 23 26 31
44 40 43 39 39 39 38 36 37 38 38 32 20 16 5 10 33 37 35 42 38 34 30 31 30 28 24 22 19 19 19 22 18 11 10 8 6 9 21 24 28 28 21 25
40 41 43 38 38 39 38 37 36 37 39 33 29 20 19 28 32 33 48 38 38 30 31 32 31 28 25 22 21 17 18 19 18 18 14 11 13 28 21 21 24 31 30 27
43 41 41 38 38 39 37 37 39 38 37 32 32 40 31 47 56 55 55 51 36 32 30 32 35 26 25 21 21 19 19 16 23 22 21 22 18 22 22 22 21 32 30 24
44 43 41 39 40 40 40 38 37 35 35 33 34 46 36 39 46 53 52 51 41 38 33 37 39 26 25 23 22 22 24 21 21 27 23 21 18 19 17 22 19 17 20 23
45 44 42 42 41 39 37 36 37 34 29 30 34 33 35 31 31 38 54 33 42 40 41 40 38 30 24 27 23 23 26 27 23 29 26 25 24 22 21 23 14 12 11 13
47 44 43 43 42 38 34 33 32 34 31 36 38 25 25 26 36 18 16 21 36 40 33 35 36 32 27 27 28 25 26 28 28 28 30 28 28 26 24 27 30 27 21 19
46 41 39 37 40 38 31 31 33 36 33 38 38 22 23 27 39 47 45 35 36 34 36 33 36 34 30 27 29 29 28 27 30 31 33 37 28 30 27 32 32 31 26 28
50 48 45 41 41 34 30 30 34 41 39 40 32 29 27 41 43 52 59 46 39 41 44 46 44 37 33 29 30 30 29 31 28 36 33 36 34 38 29 30 31 32 32 31
50 46 43 40 38 35 33 35 34 37 40 34 26 23 33 41 41 47 55 60 58 58 57 63 52 39 35 32 30 31 30 33 32 30 40 39 41 38 43 42 41 37 37 33
49 48 49 45 41 37 40 35 33 39 44 37 32 26 29 60 45 40 45 49 49 52 52 47 41 41 35 34 30 31 31 31 34 34 37 45 41 39 38 40 38 39 39 38
54 52 49 47 46 45 43 38 32 36 55 35 36 37 36 41 46 49 47 51 49 51 52 49 45 43 39 34 30 33 33 32 35 35 34 45 46 43 39 42 44 45 45 41
49 51 49 51 51 50 41 39 37 42 50 44 46 46 38 44 50 57 54 52 57 52 44 47 49 44 40 36 34 34 33 34 34 32 36 37 46 47 43 42 42 43 43 44
57 56 48 46 52 48 45 42 40 45 50 55 48 55 46 43 40 44 42 47 51 55 52 52 48 42 40 36 33 37 36 34 34 37 36 42 44 43 48 45 44 45 49 50
60 55 47 46 36 36 35 37 33 37 55 58 39 48 46 42 40 42 41 41 49 53 50 48 44 41 34 32 36 37 41 38 37 38 38 41 46 46 40 40 47 46 40 39
58 55 57 64 63 57 44 43 55 45 33 44 45 47 46 45 42 39 40 39 40 43 45 45 44 36 32 35 38 42 46 47 45 42 44 40 45 51 47 43 42 48 48 48
56 57 54 33 29 42 43 58 63 68 72 68 68 61 53 47 44 35 41 43 44 47 45 44 41 35 37 37 41 45 47 48 48 45 47 45 44 46 54 51 50 42 44 49
Wind_Direction
284 287 289 291 293 296 297 300 301 285 306 302 309 303 304 303 295 304 317 323 314 312 306 306 308 308 310 306 263 262 229 223 212 208 209 210 212 207 209 208 208 208 204 210
283 286 288 290 292 292 293 294 293 298 302 301 293 293 300 303 300 299 326 304 296 312 300 298 300 304 306 300 266 251 247 220 220 213 214 216 224 221 213 212 210 208 211 206
282 283 287 287 287 289 291 293 292 289 285 277 285 286 294 297 287 295 297 283 286 308 317 295 295 301 299 305 280 258 249 242 219 222 216 212 220 226 217 216 211 216 221 227
284 284 285 286 285 285 286 288 282 273 266 270 280 276 291 291 264 277 296 304 297 305 319 308 297 300 303 320 288 265 254 248 242 228 223 231 236 237 224 215 220 224 228 236
282 282 283 281 278 278 276 278 273 269 268 272 275 271 287 274 218 256 285 295 294 304 312 302 302 298 297 315 274 281 265 283 246 243 237 235 233 229 225 222 229 228 239 235
278 277 272 269 268 267 266 263 261 265 269 275 276 282 277 268 266 271 284 286 291 304 314 306 305 299 297 304 265 274 259 307 272 240 244 234 237 238 234 239 234 234 237 239
267 263 264 265 263 257 254 255 259 263 269 275 280 280 275 278 273 277 280 288 298 297 306 306 303 307 291 295 255 259 288 335 308 255 241 237 239 241 233 233 231 236 232 232
256 256 255 254 254 251 256 257 260 261 269 279 288 293 294 279 263 277 284 288 291 296 298 299 297 304 298 288 265 252 271 17 354 329 261 242 235 232 230 234 240 236 246 250
249 246 249 252 250 254 255 256 257 266 268 268 254 248 260 276 275 277 281 285 288 295 291 295 295 297 297 286 272 254 251 343 47 70 52 18 230 233 228 239 243 242 246 242
246 246 246 245 251 254 256 257 263 265 268 274 276 274 286 301 290 282 275 280 286 290 283 288 292 303 293 287 277 256 259 274 288 171 86 52 184 232 231 247 241 244 255 252
244 241 243 243 250 251 253 259 265 268 274 278 267 307 347 284 264 264 279 277 281 289 282 282 292 300 290 283 280 262 258 266 269 174 141 172 136 248 239 259 241 239 263 243
241 240 245 244 245 249 255 262 266 272 271 263 235 222 171 208 243 271 273 276 273 282 282 279 286 300 288 279 275 258 260 257 230 225 206 191 188 212 244 260 247 246 248 249
238 240 244 243 245 251 257 260 268 274 269 265 251 240 243 217 236 248 266 276 275 271 284 280 284 291 287 267 263 257 248 232 199 217 228 232 229 221 245 272 265 243 247 245
239 241 243 245 245 250 256 265 274 273 270 261 254 251 245 240 251 263 271 273 269 267 274 279 283 285 289 270 252 248 244 241 229 209 231 238 240 236 254 262 263 246 240 244
239 243 245 243 247 251 256 265 275 272 265 271 261 252 255 258 264 264 267 280 272 269 278 284 282 283 286 278 255 250 246 243 238 217 224 230 232 235 248 246 255 238 238 254
248 246 242 241 247 252 256 267 272 259 262 271 274 263 253 233 241 225 270 286 264 269 276 272 274 278 278 272 264 254 248 242 241 230 230 234 236 228 242 248 257 256 257 267
242 240 240 242 252 248 260 271 254 247 250 247 268 275 248 234 245 236 248 262 260 266 275 271 278 277 277 266 260 257 251 245 243 235 233 231 243 242 245 246 248 252 266 274
244 245 236 234 244 255 259 260 247 251 256 265 270 267 246 239 237 246 251 252 263 267 271 272 285 274 277 268 265 257 253 251 242 240 241 242 237 230 237 238 243 255 266 267
239 235 236 240 248 250 257 259 262 256 263 263 273 281 262 267 258 258 251 255 264 266 264 273 270 265 275 267 262 261 255 249 248 240 235 241 245 238 235 239 247 257 264 261
240 240 238 243 247 252 252 265 261 254 261 266 271 273 244 258 266 262 264 253 257 261 268 264 262 265 265 264 261 260 260 252 247 240 236 236 240 244 241 242 244 251 260 265
236 238 240 243 247 249 263 276 273 239 260 274 268 267 252 256 249 253 263 261 261 262 262 267 262 265 262 262 259 253 255 255 249 247 243 232 237 237 243 244 248 254 260 261
246 248 250 249 252 257 263 271 258 255 255 266 278 273 265 256 253 257 258 256 251 251 257 269 269 262 265 264 258 254 253 256 254 245 242 237 234 237 241 247 248 252 256 261
251 253 260 271 259 252 251 259 253 251 246 262 267 271 270 268 262 266 265 256 251 251 258 261 260 260 263 268 261 257 259 258 260 253 244 237 236 239 242 243 250 251 254 259
251 251 247 222 239 249 249 242 217 236 254 252 246 265 266 261 261 261 261 256 252 253 257 261 263 262 260 260 264 262 258 257 262 255 254 240 237 236 237 248 246 250 246 252
246 246 242 235 249 249 257 254 228 226 234 242 243 262 268 259 259 259 259 258 258 262 263 261 259 256 254 260 263 265 266 262 259 258 257 250 242 235 234 238 246 254 253 255
249 249 247 255 261 267 263 246 236 236 240 244 254 257 269 260 257 258 260 264 264 263 263 257 253 254 262 269 272 273 267 254 253 250 245 247 249 244 239 236 238 245 254 259
Height
10962 10966 10968 10970 10966 10963 10955 10962 10962 10949 10952 10951 10944 10945 10948 10951 10942 10941 10941 10941 10937 10927 10921 10919 10917 10915 10914 10914 10913 10913 10915 10916 10918 10921 10925 10931 10934 10938 10941 10943 10946 10947 10949 10955
10952 10956 10957 10960 10956 10953 10952 10959 10952 10947 10945 10942 10938 10938 10941 10939 10937 10937 10948 10960 10939 10926 10920 10917 10915 10913 10912 10911 10910 10910 10910 10913 10916 10918 10921 10926 10930 10934 10937 10940 10942 10944 10944 10948
10939 10940 10947 10948 10946 10943 10942 10945 10943 10942 10937 10936 10936 10937 10938 10940 10930 10931 10935 10945 10933 10924 10917 10915 10913 10910 10908 10907 10906 10906 10906 10907 10911 10914 10918 10922 10924 10928 10934 10937 10939 10940 10940 10943
10925 10925 10932 10934 10935 10933 10932 10932 10935 10934 10935 10928 10932 10929 10935 10934 10932 10917 10922 10925 10921 10918 10915 10912 10909 10907 10904 10905 10903 10904 10904 10904 10905 10909 10912 10917 10919 10924 10928 10933 10935 10936 10937 10939
10911 10914 10919 10919 10919 10922 10922 10922 10921 10922 10922 10920 10922 10920 10923 10924 10926 10919 10922 10919 10915 10914 10913 10908 10905 10904 10902 10902 10901 10902 10901 10902 10901 10902 10904 10907 10913 10917 10922 10927 10930 10932 10935 10936
10896 10902 10904 10905 10907 10911 10909 10911 10910 10913 10913 10913 10912 10915 10905 10925 10920 10917 10918 10915 10912 10911 10908 10905 10902 10900 10900 10901 10899 10899 10899 10898 10897 10896 10898 10902 10905 10910 10915 10919 10923 10925 10927 10930
10883 10889 10889 10895 10898 10900 10901 10902 10902 10904 10906 10905 10906 10909 10905 10909 10909 10909 10913 10911 10908 10908 10905 10902 10900 10899 10897 10897 10897 10896 10897 10896 10892 10892 10892 10895 10898 10903 10906 10910 10915 10919 10921 10923
10873 10879 10880 10883 10886 10889 10894 10894 10896 10897 10901 10898 10902 10901 10896 10904 10904 10903 10903 10904 10902 10904 10901 10900 10896 10896 10894 10893 10893 10893 10894 10892 10887 10886 10888 10890 10892 10896 10901 10906 10909 10913 10916 10918
10865 10868 10869 10877 10878 10881 10884 10887 10885 10890 10895 10894 10893 10887 10894 10892 10897 10894 10895 10895 10896 10896 10897 10894 10891 10891 10890 10889 10888 10888 10890 10891 10890 10887 10885 10885 10888 10894 10895 10900 10903 10907 10909 10910
10854 10861 10863 10869 10870 10874 10876 10878 10880 10882 10885 10888 10886 10877 10889 10894 10887 10886 10889 10889 10889 10890 10890 10889 10888 10887 10885 10884 10884 10885 10886 10885 10888 10887 10884 10885 10887 10887 10892 10893 10898 10901 10904 10904
10844 10853 10854 10861 10863 10865 10868 10872 10871 10873 10876 10881 10882 10879 10887 10883 10887 10879 10878 10882 10883 10884 10882 10883 10883 10883 10880 10878 10881 10880 10882 10883 10885 10886 10882 10883 10885 10887 10886 10888 10891 10894 10897 10897
10838 10843 10846 10853 10855 10856 10860 10862 10864 10866 10866 10871 10873 10872 10882 10871 10872 10870 10869 10875 10876 10877 10877 10876 10877 10878 10875 10874 10875 10876 10877 10877 10879 10880 10880 10882 10883 10885 10882 10884 10886 10889 10890 10892
10828 10835 10839 10844 10846 10849 10852 10852 10856 10858 10858 10863 10865 10866 10879 10879 10866 10867 10868 10869 10869 10870 10870 10870 10870 10873 10869 10870 10871 10871 10873 10874 10873 10874 10875 10877 10878 10880 10880 10880 10880 10882 10884 10886
10820 10826 10831 10835 10837 10841 10842 10846 10847 10849 10853 10854 10856 10850 10861 10868 10868 10864 10861 10861 10862 10862 10863 10864 10864 10867 10866 10864 10865 10865 10866 10867 10869 10870 10871 10872 10873 10875 10876 10877 10877 10877 10880 10882
10810 10817 10822 10823 10827 10832 10836 10837 10838 10841 10844 10846 10845 10847 10852 10856 10849 10849 10847 10847 10855 10856 10856 10856 10857 10859 10860 10857 10859 10862 10861 10862 10864 10865 10866 10868 10869 10870 10873 10874 10875 10875 10876 10878
10801 10808 10811 10813 10816 10822 10828 10831 10833 10833 10838 10838 10835 10844 10848 10846 10836 10845 10839 10839 10844 10845 10843 10846 10848 10849 10850 10851 10852 10854 10854 10856 10858 10858 10861 10863 10864 10865 10866 10868 10869 10870 10872 10872
10790 10796 10801 10807 10804 10812 10822 10823 10824 10828 10833 10828 10833 10838 10840 10839 10832 10830 10830 10833 10835 10835 10837 10840 10841 10841 10840 10845 10844 10847 10848 10848 10850 10852 10854 10857 10860 10859 10859 10861 10862 10864 10866 10866
10778 10785 10788 10794 10794 10806 10811 10812 10815 10816 10819 10819 10825 10824 10825 10824 10821 10823 10824 10824 10827 10829 10831 10834 10836 10835 10832 10834 10834 10838 10841 10841 10843 10843 10846 10848 10852 10853 10854 10854 10855 10857 10858 10859
10768 10775 10779 10784 10790 10797 10800 10800 10805 10808 10807 10811 10810 10815 10813 10814 10812 10818 10819 10820 10820 10820 10822 10825 10828 10827 10826 10823 10825 10827 10831 10834 10834 10835 10838 10839 10840 10845 10845 10847 10848 10849 10849 10851
10758 10766 10769 10774 10781 10786 10786 10793 10795 10798 10793 10799 10803 10806 10804 10805 10806 10806 10805 10809 10811 10813 10814 10815 10816 10817 10817 10815 10816 10818 10820 10823 10825 10826 10827 10830 10832 10834 10835 10838 10840 10840 10842 10844
10746 10752 10759 10763 10769 10773 10782 10792 10796 10793 10783 10790 10795 10796 10795 10798 10799 10802 10799 10801 10803 10805 10803 10805 10805 10805 10805 10806 10805 10808 10809 10812 10815 10816 10817 10820 10822 10824 10826 10828 10830 10831 10833 10834
10741 10743 10748 10750 10756 10766 10775 10779 10780 10783 10779 10778 10781 10782 10788 10785 10789 10790 10786 10788 10792 10796 10792 10794 10796 10796 10795 10797 10796 10798 10800 10802 10804 10806 10807 10810 10812 10815 10817 10819 10820 10821 10822 10823
10724 10730 10737 10739 10743 10753 10760 10767 10767 10766 10771 10769 10772 10770 10772 10775 10778 10776 10776 10778 10780 10782 10783 10784 10785 10786 10785 10787 10787 10789 10792 10794 10795 10795 10796 10798 10800 10803 10805 10808 10808 10810 10811 10812
10708 10716 10729 10728 10730 10745 10755 10757 10769 10763 10753 10754 10762 10765 10760 10763 10767 10769 10768 10769 10769 10772 10773 10772 10773 10776 10778 10778 10777 10775 10780 10784 10782 10782 10784 10787 10790 10792 10794 10795 10796 10796 10799 10801
10695 10706 10710 10723 10734 10739 10751 10748 10744 10746 10740 10742 10748 10759 10757 10754 10754 10758 10757 10759 10759 10758 10759 10762 10760 10764 10766 10766 10768 10767 10768 10769 10770 10772 10774 10775 10775 10778 10781 10783 10785 10785 10786 10789
10685 10691 10701 10717 10726 10732 10727 10734 10733 10726 10728 10734 10743 10748 10750 10748 10746 10749 10747 10748 10749 10749 10749 10750 10751 10753 10755 10756 10756 10754 10752 10752 10754 10758 10760 10762 10763 10765 10768 10770 10773 10774 10774 10774